,date,hour,month,day,station,uur,temperatuur,zon_uren,neerslag_duur_h,neerslag_som,elektriciteitsverbruik,waterverbruik,gem_temp,max_temp,energiekosten
0,2022-04-01,276,96,24,7440,276,76.4,13,50,46.0,46.72111495489017,50.199459568235206,3.1833333333333336,5.2,0.20104
1,2022-04-02,276,96,48,7440,276,107.4,77,0,0.5,47.1872740184568,50.750903866897715,4.4750000000000005,6.2,0.22464
2,2022-04-03,276,96,72,7440,276,118.4,79,3,2.75,48.30467695113361,51.89173122526559,4.933333333333334,7.099999999999999,0.24077
3,2022-04-04,276,96,96,7440,276,178.5,0,62,56.5,49.013647209097364,50.46249505737365,7.4375,9.8,0.21234
4,2022-04-05,276,96,120,7440,276,232.3,11,45,19.75,48.62540454729766,50.56675424338765,9.679166666666667,11.0,0.23918
5,2022-04-06,276,96,144,7440,276,231.2,1,36,52.0,48.32853294242981,50.93601511980834,9.633333333333333,10.4,0.18573
6,2022-04-07,276,96,168,7440,276,215.5,50,41,129.75,49.4956131882502,49.880950267905874,8.979166666666666,10.1,0.20056
7,2022-04-08,276,96,192,7440,276,162.7,17,0,0.5,50.08576739651314,51.45912193970434,6.779166666666666,8.3,0.22869
8,2022-04-09,276,96,216,7440,276,170.9,121,0,0.5,48.73049212737323,48.15691358374819,7.120833333333334,9.2,0.1809
9,2022-04-10,276,96,240,7440,276,205.4,125,0,0.0,49.702646719802814,48.53368500501972,8.558333333333334,12.300000000000002,0.18923
10,2022-04-11,276,96,264,7440,276,258.1,121,0,0.0,48.35226174832666,50.06064318365045,10.754166666666668,14.1,0.23314
11,2022-04-12,276,96,288,7440,276,296.3,102,0,0.0,50.29371952926752,50.54608516465426,12.345833333333333,17.9,0.20527
12,2022-04-13,276,96,312,7440,276,288.0,16,0,0.25,50.71472766264036,51.15992089683815,12.0,15.0,0.23905
13,2022-04-14,276,96,336,7440,276,278.5,113,0,0.0,48.855391202286455,49.96983828597667,11.604166666666666,15.5,0.22754
14,2022-04-15,276,96,360,7440,276,262.4,109,0,0.0,48.99958019640872,51.573815865731746,10.933333333333332,14.800000000000002,0.20625
15,2022-04-16,276,96,384,7440,276,282.2,129,0,0.0,51.755061413680686,48.41758766373156,11.758333333333333,15.9,0.14779
16,2022-04-17,276,96,408,7440,276,300.0,129,0,0.0,49.29810407089832,49.396013901303704,12.5,17.1,0.108026
17,2022-04-18,276,96,432,7440,276,305.3,122,0,0.0,50.985613659846955,50.961961362226326,12.720833333333333,17.7,0.12663
18,2022-04-19,276,96,456,7440,276,315.0,67,0,0.0,49.0721746570629,48.24096354733207,13.125,17.2,0.20931
19,2022-04-20,276,96,480,7440,276,307.1,109,0,0.0,49.13939378585416,49.73380980647267,12.795833333333334,16.3,0.20127
20,2022-04-21,276,96,504,7440,276,319.5,128,0,0.0,50.97060398871518,50.65382582790652,13.3125,16.8,0.19859
21,2022-04-22,276,96,528,7440,276,303.7,58,0,0.0,46.73403426298289,49.473846288582685,12.654166666666667,15.300000000000002,0.1796
22,2022-04-23,276,96,552,7440,276,342.6,122,0,0.0,45.969793138176,45.899197312011296,14.275,18.7,0.06254
23,2022-04-24,276,96,576,7440,276,309.1,126,0,0.0,49.51085596850203,49.35079179176696,12.879166666666668,16.5,0.08382
24,2022-04-25,276,96,600,7440,276,244.0,28,23,14.75,48.41562002574497,50.53218768699241,10.166666666666666,12.0,0.22122
25,2022-04-26,276,96,624,7440,276,230.8,117,4,8.25,50.372859455678224,47.33996227116762,9.616666666666667,12.199999999999998,0.22463
26,2022-04-27,276,96,648,7440,276,223.7,84,0,0.0,49.19606548213688,49.93095332021211,9.320833333333333,12.5,0.21906
27,2022-04-28,276,96,672,7440,276,251.4,100,0,0.0,50.23846180462793,47.57785590487258,10.475,14.0,0.23012
28,2022-04-29,276,96,696,7440,276,239.5,65,0,0.25,50.3846094195069,52.683548093344875,9.979166666666666,13.300000000000002,0.22792
29,2022-04-30,276,96,720,7440,276,217.1,70,0,0.0,48.150246024620316,51.742050560212505,9.045833333333333,11.9,0.20116
30,2022-05-01,276,120,24,7440,276,246.9,74,0,0.25,49.48491971231066,47.47589384446178,10.2875,14.0,0.19474
31,2022-05-02,276,120,48,7440,276,293.7,123,0,0.0,48.877757617248434,49.18653222431719,12.237499999999999,15.9,0.21744
32,2022-05-03,276,120,72,7440,276,260.9,73,0,0.0,49.13734698612916,48.59378236737926,10.870833333333332,13.800000000000002,0.21816
33,2022-05-04,276,120,96,7440,276,256.6,74,0,0.0,49.38453246245257,49.96856862765713,10.691666666666668,13.199999999999998,0.22842
34,2022-05-05,276,120,120,7440,276,302.4,86,0,0.0,47.76238197583826,51.52190770033878,12.6,16.1,0.23372
35,2022-05-06,276,120,144,7440,276,332.1,125,0,0.0,44.30646811433631,45.6043351649657,13.8375,19.1,0.22536
36,2022-05-07,276,120,168,7440,276,333.8,70,0,0.25,48.92344096025988,50.736109529588425,13.908333333333333,17.4,0.20143
37,2022-05-08,276,120,192,7440,276,305.3,127,0,0.0,50.55261712375075,49.87361005174842,12.720833333333333,16.0,0.16919
38,2022-05-09,276,120,216,7440,276,367.1,121,0,0.0,43.55232301542955,41.22233733415617,15.295833333333334,21.3,0.21478
39,2022-05-10,276,120,240,7440,276,373.2,21,0,0.0,47.13405094673696,46.815985616516954,15.549999999999999,18.6,0.16794
40,2022-05-11,276,120,264,7440,276,351.8,90,5,7.25,49.604952268313205,50.07856834794814,14.658333333333333,17.8,0.15747
41,2022-05-12,276,120,288,7440,276,336.5,135,0,0.0,50.96845796456867,50.051017938635646,14.020833333333334,16.8,0.1684
42,2022-05-13,276,120,312,7440,276,322.8,125,0,0.0,49.23395185268731,50.92234761645581,13.450000000000001,15.9,0.16078
43,2022-05-14,276,120,336,7440,276,347.7,143,0,0.0,46.068482914980656,43.91645840142454,14.487499999999999,19.0,0.16089
44,2022-05-15,276,120,360,7440,276,461.1,136,0,0.0,40.21399727340492,40.00053321817629,19.212500000000002,24.399999999999995,0.14892
45,2022-05-16,276,120,384,7440,276,410.40000000000003,84,3,8.0,47.8047975682306,45.80491484780788,17.1,19.5,0.2081
46,2022-05-17,276,120,408,7440,276,461.6,99,0,0.75,40.53652864745324,42.31376327240166,19.233333333333334,24.7,0.22137
47,2022-05-18,276,120,432,7440,276,439.0,105,0,0.25,41.925919422595044,41.84698418090229,18.291666666666668,21.600000000000005,0.2055
48,2022-05-19,276,120,456,7440,276,407.0,74,22,61.25,41.83758919837188,43.84396328417465,16.958333333333332,20.9,0.21081
49,2022-05-20,276,120,480,7440,276,338.4,35,30,136.25,47.30637484976637,49.78718816979055,14.1,17.2,0.21302
50,2022-05-21,276,120,504,7440,276,346.0,94,0,0.0,50.737674240844875,49.326287322407865,14.416666666666666,17.1,0.13892
51,2022-05-22,276,120,528,7440,276,417.9,118,0,0.0,41.90631495579295,41.07459569027892,17.412499999999998,21.7,0.1659
52,2022-05-23,276,120,552,7440,276,368.6,2,38,67.5,47.87520465884723,46.475652692215036,15.358333333333334,18.8,0.19633
53,2022-05-24,276,120,576,7440,276,321.7,83,13,48.75,50.50165052315149,49.75312710672944,13.404166666666667,15.6,0.17789
54,2022-05-25,276,120,600,7440,276,336.3,57,0,1.25,47.51563446523218,49.20350017473598,14.012500000000001,16.7,0.16342
55,2022-05-26,276,120,624,7440,276,370.2,107,0,0.0,51.17247292961083,49.712452397460424,15.424999999999999,17.0,0.0906
56,2022-05-27,276,120,648,7440,276,355.9,128,0,0.5,50.36565736023727,51.0206492169318,14.829166666666666,15.9,0.09721
57,2022-05-28,276,120,672,7440,276,312.6,138,0,0.25,48.864951710268045,50.32154269305654,13.025,14.9,0.0668
58,2022-05-29,276,120,696,7440,276,278.9,66,14,25.5,49.81483248336831,49.64376477570511,11.620833333333332,13.800000000000002,0.16541
59,2022-05-30,276,120,720,7440,276,295.3,92,0,0.5,50.722502317734,49.221695755491155,12.304166666666667,15.0,0.22599
60,2022-05-31,276,120,744,7440,276,339.1,62,5,13.25,49.353702670642384,49.439984350180566,14.129166666666668,17.8,0.20751
61,2022-06-01,276,144,24,7440,276,318.6,101,1,1.0,47.852814765196285,49.82371170404607,13.275,15.6,0.21526
62,2022-06-02,276,144,48,7440,276,359.3,140,0,0.0,46.75033362968863,45.78251794921706,14.970833333333333,18.8,0.18381
63,2022-06-03,276,144,72,7440,276,447.3,102,0,0.0,43.01818037101843,39.741854088045976,18.6375,23.5,0.16736
64,2022-06-04,276,144,96,7440,276,428.6,89,9,65.25,41.992918179720974,40.27478409265933,17.858333333333334,22.0,0.14694
65,2022-06-05,276,144,120,7440,276,382.0,0,39,211.25,50.680526119386386,51.016668281460795,15.916666666666666,17.4,0.14659
66,2022-06-06,276,144,144,7440,276,337.8,41,71,109.75,48.95593879989889,48.921789819369494,14.075000000000001,16.5,0.09581
67,2022-06-07,276,144,168,7440,276,377.0,69,4,9.0,48.42266637501166,46.85204238758274,15.708333333333334,18.8,0.1834
68,2022-06-08,276,144,192,7440,276,382.0,39,57,93.0,48.072211549350726,48.89185676223319,15.916666666666666,18.0,0.18126
69,2022-06-09,276,144,216,7440,276,395.1,104,0,0.0,51.437825296700915,46.93161105265725,16.462500000000002,18.9,0.17283
70,2022-06-10,276,144,240,7440,276,413.6,39,0,0.5,48.00776049850384,44.24970806001664,17.233333333333334,19.3,0.18289
71,2022-06-11,276,144,264,7440,276,408.1,134,0,0.0,43.115684963748805,45.70953097751017,17.004166666666666,19.5,0.1116
72,2022-06-12,276,144,288,7440,276,399.6,152,0,0.0,49.7768957702616,50.12091094260018,16.650000000000002,17.9,0.10996
73,2022-06-13,276,144,312,7440,276,374.2,146,0,0.0,48.35357918952841,49.098045398365144,15.591666666666667,17.5,0.16629
74,2022-06-14,276,144,336,7440,276,400.1,153,0,0.0,42.278240083651625,40.580186220192566,16.670833333333334,20.6,0.18737
75,2022-06-15,276,144,360,7440,276,457.3,141,0,0.0,38.76806543416462,38.16485675876655,19.054166666666667,23.600000000000005,0.20318
76,2022-06-16,276,144,384,7440,276,474.3,133,0,0.0,38.38739561170827,37.277116962193816,19.7625,23.899999999999995,0.21694
77,2022-06-17,276,144,408,7440,276,541.5,126,0,0.0,27.145552857652934,27.02538322837248,22.5625,28.100000000000005,0.26123
78,2022-06-18,276,144,432,7440,276,488.3,120,0,0.0,29.06676025095256,32.47464653451272,20.345833333333335,25.600000000000005,0.20431
79,2022-06-19,276,144,456,7440,276,351.1,7,37,50.0,48.74298745277689,48.95741849662801,14.629166666666668,15.800000000000002,0.15952
80,2022-06-20,276,144,480,7440,276,371.0,116,0,0.0,49.2706152673195,49.16811506789093,15.458333333333334,17.8,0.24132
81,2022-06-21,276,144,504,7440,276,401.8,92,0,0.0,44.06617935086497,43.70193065007569,16.741666666666667,21.399999999999995,0.27155
82,2022-06-22,276,144,528,7440,276,457.1,153,0,0.0,38.28395220957908,38.349182673300724,19.045833333333334,23.0,0.26022
83,2022-06-23,276,144,552,7440,276,519.1,130,0,0.25,35.46530768468283,36.97965487721327,21.629166666666666,26.0,0.28427
84,2022-06-24,276,144,576,7440,276,461.6,57,47,60.75,37.065731388169965,35.52599625347125,19.233333333333334,22.0,0.2845
85,2022-06-25,276,144,600,7440,276,420.59999999999997,22,23,16.75,45.5954529825246,45.42046263448453,17.525,21.399999999999995,0.24742
86,2022-06-26,276,144,624,7440,276,425.0,91,0,0.0,44.08519809178161,44.1019796563379,17.708333333333332,20.4,0.21809
87,2022-06-27,276,144,648,7440,276,419.5,69,21,78.25,43.616866971697505,42.88312284208784,17.479166666666668,19.4,0.29899
88,2022-06-28,276,144,672,7440,276,451.8,144,0,0.0,37.47223101663859,39.483845346551895,18.825,22.899999999999995,0.30371
89,2022-06-29,276,144,696,7440,276,482.9,128,0,0.0,38.83251300854382,38.10723414664229,20.120833333333334,25.5,0.28757
90,2022-06-30,276,144,720,7440,276,379.8,27,55,136.25,49.256529787166926,49.17562262385345,15.825000000000001,19.3,0.3224
91,2022-07-01,276,168,24,7440,276,385.40000000000003,102,6,5.25,46.276142616636044,48.34909391433107,16.058333333333334,19.4,0.30652
92,2022-07-02,276,168,48,7440,276,444.6,127,0,0.0,41.476419335394546,40.63321290729915,18.525000000000002,24.3,0.22581
93,2022-07-03,276,168,72,7440,276,416.4,135,0,0.0,40.73093928841494,43.16933915476605,17.349999999999998,19.4,0.20242
94,2022-07-04,276,168,96,7440,276,432.1,145,0,0.0,39.965884246857506,42.65289485713341,18.004166666666666,21.399999999999995,0.28611
95,2022-07-05,276,168,120,7440,276,419.4,130,0,0.0,39.60508698943117,40.839932597019626,17.474999999999998,20.2,0.30818
96,2022-07-06,276,168,144,7440,276,439.4,80,0,0.0,37.69803182341954,39.57193361445283,18.308333333333334,20.8,0.30186
97,2022-07-07,276,168,168,7440,276,402.7,23,4,2.0,41.144473592360406,43.313471407599565,16.779166666666665,19.5,0.23546
98,2022-07-08,276,168,192,7440,276,442.4,147,0,0.0,40.3056005561769,40.26786893735183,18.433333333333334,22.7,0.31206
99,2022-07-09,276,168,216,7440,276,433.2,99,0,0.0,36.54156235465742,34.74781275718715,18.05,20.1,0.18215
100,2022-07-10,276,168,240,7440,276,434.6,121,0,0.0,39.694787851197496,41.64947254221929,18.108333333333334,21.399999999999995,0.20059
101,2022-07-11,276,168,264,7440,276,483.6,139,0,0.0,38.0388323349446,38.6432231552112,20.150000000000002,25.0,0.36396
102,2022-07-12,276,168,288,7440,276,551.8,77,3,1.25,24.667384338750793,26.64597014389008,22.991666666666664,28.2,0.36743
103,2022-07-13,276,168,312,7440,276,496.3,24,3,3.5,29.10773892816458,31.47666124921361,20.679166666666667,24.600000000000005,0.34493
104,2022-07-14,276,168,336,7440,276,439.2,98,0,0.0,40.889903886719,40.626801156703195,18.3,22.8,0.36388
105,2022-07-15,276,168,360,7440,276,442.8,153,0,0.0,41.097000734978764,37.73929489349479,18.45,21.7,0.32795
106,2022-07-16,276,168,384,7440,276,454.4,142,0,0.0,40.79863490938889,41.9545162197916,18.933333333333334,22.100000000000005,0.17566
107,2022-07-17,276,168,408,7440,276,490.9,140,0,0.0,38.13716905721272,41.17544192350615,20.454166666666666,24.8,0.21507
108,2022-07-18,276,168,432,7440,276,620.7,150,0,0.0,26.26502057267454,25.584109334438935,25.8625,32.3,0.37737
109,2022-07-19,276,168,456,7440,276,652.6,144,0,0.0,25.58248433846665,26.96395687005315,27.191666666666666,32.7,0.35976
110,2022-07-20,276,168,480,7440,276,510.6,20,19,12.0,35.412809543029574,32.23134687076913,21.275000000000002,24.2,0.32521
111,2022-07-21,276,168,504,7440,276,426.0,14,27,142.25,40.33594675539592,38.05102281729917,17.75,18.7,0.35409
112,2022-07-22,276,168,528,7440,276,427.4,45,4,1.5,45.37310700626884,42.493721362650355,17.808333333333334,20.8,0.33304
113,2022-07-23,276,168,552,7440,276,483.0,112,0,0.0,38.019020543376556,40.09662552521186,20.125,24.8,0.30884
114,2022-07-24,276,168,576,7440,276,549.5,138,0,0.0,36.970468538141056,34.1885412062178,22.895833333333332,29.0,0.23945
115,2022-07-25,276,168,600,7440,276,491.8,60,0,0.5,27.04712629132676,27.494445202450578,20.491666666666667,22.100000000000005,0.28961
116,2022-07-26,276,168,624,7440,276,431.3,59,12,12.25,31.84264297198868,33.88826935355032,17.970833333333335,19.8,0.31512
117,2022-07-27,276,168,648,7440,276,418.8,82,0,0.0,45.61306144248238,40.7048266834381,17.45,20.7,0.37409
118,2022-07-28,276,168,672,7440,276,444.2,68,0,0.0,41.41096457274804,40.38747932536142,18.508333333333333,21.899999999999995,0.42546
119,2022-07-29,276,168,696,7440,276,465.1,134,0,0.0,39.81107923249743,38.91768811510285,19.379166666666666,24.0,0.39699
120,2022-07-30,276,168,720,7440,276,485.8,78,0,0.0,36.550643550181306,35.02612436460652,20.241666666666667,25.0,0.36879
121,2022-07-31,276,168,744,7440,276,476.9,7,2,3.75,38.710575269144464,36.806690219126196,19.870833333333334,21.5,0.31687
122,2022-08-01,276,192,24,7440,276,501.8,92,0,0.0,27.477377831791586,27.45906134150402,20.908333333333335,24.5,0.40433
123,2022-08-02,276,192,48,7440,276,498.9,117,0,0.0,32.50062120028346,31.73067632435654,20.787499999999998,24.399999999999995,0.33321
124,2022-08-03,276,192,72,7440,276,540.1,139,0,0.0,27.41989375523455,26.855064696179753,22.504166666666666,28.0,0.31755
125,2022-08-04,276,192,96,7440,276,514.9,66,0,0.0,27.944514006946218,27.256352724723765,21.454166666666666,25.600000000000005,0.3757
126,2022-08-05,276,192,120,7440,276,445.5,110,0,0.0,32.262600690974516,31.867968718493653,18.5625,22.3,0.37106
127,2022-08-06,276,192,144,7440,276,439.3,127,0,0.0,42.24784464964134,42.49991292507095,18.304166666666667,21.5,0.26941
128,2022-08-07,276,192,168,7440,276,449.8,140,0,0.0,41.51773965066271,41.11239089660909,18.741666666666667,22.7,0.21414
129,2022-08-08,276,192,192,7440,276,467.9,133,0,0.0,40.69823718754281,38.53950749184536,19.495833333333334,23.5,0.35845
130,2022-08-09,276,192,216,7440,276,497.3,139,0,0.0,38.26176252251393,37.36212102940548,20.720833333333335,24.5,0.34208
131,2022-08-10,276,192,240,7440,276,549.0,139,0,0.0,34.34488942622769,37.022755419313306,22.875,28.899999999999995,0.333
132,2022-08-11,276,192,264,7440,276,591.8,139,0,0.0,25.55340442425554,27.271862901696327,24.65833333333333,30.600000000000005,0.36815
133,2022-08-12,276,192,288,7440,276,604.0,137,0,0.0,26.950746637938828,27.33249287094692,25.166666666666668,31.100000000000005,0.43019
134,2022-08-13,276,192,312,7440,276,609.8,137,0,0.0,26.272043371059052,27.67225763665102,25.40833333333333,31.2,0.36462
135,2022-08-14,276,192,336,7440,276,603.8,94,0,0.0,26.31608366578504,26.159321810094397,25.15833333333333,30.8,0.31819
136,2022-08-15,276,192,360,7440,276,550.5,89,6,12.25,25.108689836104688,27.04677154189654,22.9375,27.2,0.42868
137,2022-08-16,276,192,384,7440,276,520.3,37,13,40.75,34.224744224703734,37.005394911711115,21.679166666666664,27.600000000000005,0.45479
138,2022-08-17,276,192,408,7440,276,468.2,5,68,150.5,36.10317762736887,37.70572287508847,19.508333333333333,20.4,0.53937
139,2022-08-18,276,192,432,7440,276,508.0,112,0,0.0,29.890908085213542,29.36945956232308,21.166666666666668,26.0,0.51291
140,2022-08-19,276,192,456,7440,276,478.7,34,5,14.25,40.746350958924246,42.727309241012684,19.945833333333333,22.5,0.49224
141,2022-08-20,276,192,480,7440,276,468.09999999999997,117,0,0.0,34.227456091628554,34.589668346977,19.504166666666666,21.399999999999995,0.45607
142,2022-08-21,276,192,504,7440,276,460.0,84,0,1.0,44.716128069436586,43.003771709264605,19.166666666666668,22.3,0.36176
143,2022-08-22,276,192,528,7440,276,512.2,78,0,0.25,38.92140031488452,38.71984968452955,21.34166666666667,25.399999999999995,0.55823
144,2022-08-23,276,192,552,7440,276,525.0,78,0,0.0,26.551212786471417,26.704360831579677,21.875,24.5,0.60355
145,2022-08-24,276,192,576,7440,276,573.0,93,0,0.0,24.722586332026708,28.19720178350338,23.875,28.100000000000005,0.61134
146,2022-08-25,276,192,600,7440,276,544.6,81,0,0.0,27.809724577737903,23.725547657492164,22.691666666666666,27.7,0.58585
147,2022-08-26,276,192,624,7440,276,472.3,75,0,0.0,30.88031682111467,27.62020114666713,19.679166666666667,21.899999999999995,0.69383
148,2022-08-27,276,192,648,7440,276,457.0,55,0,0.0,36.9512586456208,36.506388266378444,19.041666666666668,22.8,0.60358
149,2022-08-28,276,192,672,7440,276,440.5,121,0,0.0,42.15128164278433,39.52888184923304,18.354166666666668,21.7,0.38454
150,2022-08-29,276,192,696,7440,276,443.1,92,0,0.0,41.909850666581995,38.329246903812944,18.462500000000002,21.899999999999995,0.63006
151,2022-08-30,276,192,720,7440,276,474.2,71,0,0.0,41.38843768434879,37.46517341184372,19.758333333333333,23.7,0.60745
152,2022-08-31,276,192,744,7440,276,476.4,125,0,0.0,39.18915801522551,39.74660670703509,19.849999999999998,23.600000000000005,0.53447
153,2022-09-01,276,216,24,7440,276,482.8,116,0,0.0,40.53178723840469,39.06871488813763,20.116666666666667,24.600000000000005,0.53468
154,2022-09-02,276,216,48,7440,276,503.8,93,0,0.0,38.17739661137912,39.55327119656023,20.991666666666667,26.100000000000005,0.42528
155,2022-09-03,276,216,72,7440,276,505.3,35,0,1.0,30.98026439301722,30.621618606433444,21.054166666666667,25.899999999999995,0.28635
156,2022-09-04,276,216,96,7440,276,518.1,102,0,0.0,26.37892417131663,29.472473968020463,21.587500000000002,26.2,0.25069
157,2022-09-05,276,216,120,7440,276,532.5,24,11,29.75,29.857798011814843,30.3390264125474,22.1875,26.7,0.35916
158,2022-09-06,276,216,144,7440,276,494.7,74,32,109.75,34.26567377601583,33.97250317898999,20.6125,24.399999999999995,0.42685
159,2022-09-07,276,216,168,7440,276,481.1,72,6,15.25,36.26023293370623,33.836122781229,20.045833333333334,23.600000000000005,0.44393
160,2022-09-08,276,216,192,7440,276,428.3,48,27,111.25,45.67707515685109,43.259363513602814,17.845833333333335,21.5,0.43877
161,2022-09-09,276,216,216,7440,276,408.3,38,32,163.75,50.49982863765347,49.060063841654504,17.0125,18.8,0.34508
162,2022-09-10,276,216,240,7440,276,434.7,36,48,453.75,45.76701560734341,44.95603199290289,18.1125,20.9,0.40432
163,2022-09-11,276,216,264,7440,276,471.2,114,0,0.0,37.73760794677035,40.768214600712305,19.633333333333333,23.100000000000005,0.38935
164,2022-09-12,276,216,288,7440,276,490.2,109,0,0.25,39.863025049733096,42.63270925677056,20.425,24.100000000000005,0.39968
165,2022-09-13,276,216,312,7440,276,464.8,22,19,14.5,37.39858922186394,36.19926748622008,19.366666666666667,22.5,0.40116
166,2022-09-14,276,216,336,7440,276,364.6,7,121,149.25,49.71996526132465,48.75301094355954,15.191666666666668,16.6,0.4173
167,2022-09-15,276,216,360,7440,276,391.3,28,2,4.0,47.7966587966964,49.145371983573355,16.304166666666667,18.9,0.372236
168,2022-09-16,276,216,384,7440,276,311.5,26,102,225.75,50.94589048670284,48.825813337023405,12.979166666666666,15.4,0.20582
169,2022-09-17,276,216,408,7440,276,323.9,41,57,124.25,49.59342916500276,50.752322205825394,13.495833333333332,15.199999999999998,0.10078
170,2022-09-18,276,216,432,7440,276,348.1,23,10,21.0,47.46443424553262,50.83377485500912,14.504166666666668,16.5,0.12483
171,2022-09-19,276,216,456,7440,276,341.6,58,8,10.75,49.08595912147217,49.05575962569088,14.233333333333334,17.6,0.26668
172,2022-09-20,276,216,480,7440,276,333.9,42,9,14.75,47.92349621998162,46.66507089374687,13.9125,17.0,0.35043
173,2022-09-21,276,216,504,7440,276,345.3,87,0,0.0,49.298395255659294,50.774357640054966,14.387500000000001,17.3,0.34883
174,2022-09-22,276,216,528,7440,276,375.4,109,0,0.0,45.29533402619331,42.98909448016351,15.641666666666666,18.9,0.38393
175,2022-09-23,276,216,552,7440,276,360.1,1,72,122.0,50.179407373897114,50.48751821445452,15.004166666666668,18.0,0.37159
176,2022-09-24,276,216,576,7440,276,358.3,45,11,6.25,47.93775264408304,51.46125098195595,14.929166666666667,17.0,0.35044
177,2022-09-25,276,216,600,7440,276,330.3,51,11,36.5,48.9862888169286,51.74703940066296,13.762500000000001,16.7,0.24807
178,2022-09-26,276,216,624,7440,276,300.7,16,108,176.5,49.89518739298288,48.29340740451177,12.529166666666667,14.9,0.24651
179,2022-09-27,276,216,648,7440,276,282.2,39,41,116.0,49.892346880875834,46.23021001257639,11.758333333333333,13.9,0.28289
180,2022-09-28,276,216,672,7440,276,266.5,46,42,110.0,49.507695805062724,49.86189346776988,11.104166666666666,14.1,0.37951
181,2022-09-29,276,216,696,7440,276,298.8,75,4,5.25,50.58289114571036,48.97618760628326,12.450000000000001,15.699999999999998,0.40564
182,2022-09-30,276,216,720,7440,276,335.8,84,37,48.0,49.30549675572624,50.15516959563219,13.991666666666667,17.4,0.29548
183,2022-10-01,276,240,24,7440,276,375.3,92,15,64.75,47.55614159026042,46.75927978563593,15.637500000000001,17.1,0.12355
184,2022-10-02,276,240,48,7440,276,357.0,42,3,8.25,50.65214018748791,47.506256410660285,14.875,16.9,0.18959
185,2022-10-03,276,240,72,7440,276,347.0,79,0,0.0,51.02517659093391,50.10048438473064,14.458333333333334,17.6,0.32554
186,2022-10-04,276,240,96,7440,276,358.0,69,0,0.0,46.511088785115845,48.023207635128784,14.916666666666666,18.2,0.23259
187,2022-10-05,276,240,120,7440,276,391.2,2,0,0.25,49.899761757150685,50.453719442869485,16.3,17.8,0.1399
